#timestamp,LO_Frequency,Hit 
1500364815.5,286046982.7,N
1500364835.4,286046980.6,N
1500364855.2,286046983.3,N
1500364875.0,286046980.6,N
1500364875.9,286046980.6,N
1500364895.8,286046983.4,N
1500364915.6,286046980.8,N
1500364935.5,286046980.8,N
1500364955.3,286046983.4,N
1500364975.1,286046983.4,N
1500364995.9,286046980.9,N
1500365015.7,286046981.8,N
1500365035.6,286046979.0,N
1500365055.4,286046979.7,N
1500365075.2,286046979.5,N
1500365095.1,286046979.1,N
1500365096.0,286046979.1,N
1500365115.8,286046978.9,N
1500365135.6,286046979.4,N
1500365155.5,286046979.5,N
1500365175.3,286046980.4,N
1500365195.2,286046978.8,N
1500365215.9,286046976.7,N
1500365235.7,286046976.8,N
1500365255.6,286046974.2,N
1500365275.4,286046974.1,N
1500365295.2,286046976.4,N
1500365315.1,286046974.2,N
1500365316.0,286046974.2,N
1500365335.8,286046976.8,N
1500365355.7,286046976.5,N
1500365375.5,286046974.6,N
1500365395.3,286046974.5,N
1500365415.2,286046975.4,N
1500365435.0,286046972.6,N
1500365435.9,286046972.6,N
1500365485.8,286046973.5,Y
1500365495.7,286046984.4,N
1500365515.5,286047000.5,N
1500365535.4,286046998.6,N
1500365555.2,286046998.5,N
1500365575.1,286046999.4,N
1500365576.0,286046999.4,N
1500365595.8,286046997.1,N
1500365615.6,286046999.0,N
1500365635.5,286046999.4,N
1500365655.3,286046998.9,N
1500365675.1,286046997.5,N
1500365695.9,286046997.8,N
1500365715.7,286046996.7,N
1500365735.6,286046997.5,N
1500365755.4,286046995.5,N
1500365775.2,286046995.4,N
1500365795.1,286046997.7,N
1500365796.0,286046997.7,N
1500365815.8,286046997.5,N
1500365835.6,286046997.6,N
1500365855.5,286046995.0,N
1500365875.3,286046995.3,N
1500365895.2,286046995.1,N
1500365915.9,286046995.7,N
1500365935.7,286046996.1,N
1500365955.6,286046994.0,N
1500365975.4,286046993.4,N
1500365995.2,286046993.8,N
1500366015.1,286046993.5,N
1500366016.0,286046993.5,N
1500366035.8,286046996.4,N
1500366055.7,286046993.8,N
1500366075.5,286046993.7,N
1500366095.3,286046993.6,N
1500366115.2,286046993.5,N
1500366135.0,286046994.6,N
1500366135.9,286046994.6,N
1500366155.8,286046992.2,N
1500366175.6,286046992.5,N
1500366195.4,286046993.1,N
1500366215.3,286046990.9,N
1500366235.1,286046990.2,N
1500366236.0,286046990.2,N
1500366255.8,286046991.0,N
1500366275.7,286046990.1,N
1500366295.5,286046990.3,N
1500366315.4,286046991.1,N
1500366335.2,286046989.1,N
1500366355.0,286046988.9,N
1500366355.9,286046988.9,N
1500366375.8,286046988.8,N
1500366395.6,286046989.2,N
1500366415.4,286046987.3,N
1500366435.3,286046986.9,N
1500366455.1,286046987.3,N
1500366475.9,286046989.9,N
1500366495.7,286046986.9,N
1500366515.5,286046987.6,N
1500366535.4,286046987.7,N
1500366555.2,286046987.5,N
1500366575.0,286046987.2,N
1500366575.9,286046987.2,N
1500366595.8,286046988.3,N
1500366615.6,286046985.4,N
1500366635.5,286046985.6,N
1500366655.3,286046985.1,N
1500366675.1,286046980.5,N
1500366695.9,286046981.9,N
1500366715.7,286046979.8,N
1500366735.5,286046979.7,N
1500366755.4,286046980.2,N
1500366775.2,286046979.9,N
1500366795.1,286046979.6,N
1500366796.0,286046979.6,N
1500366815.8,286046980.2,N
1500366835.6,286046980.2,N
1500366855.5,286046979.2,N
1500366875.3,286046980.1,N
1500366895.2,286046980.2,N
1500366915.9,286046979.1,N
1500366935.7,286046979.2,N
1500366955.6,286046977.4,N
1500366975.4,286046978.6,N
1500366995.2,286046978.0,N
1500367015.1,286046977.3,N
1500367016.0,286046977.3,N
1500367035.8,286046977.5,N
1500367055.7,286046980.3,N
1500367075.5,286046977.3,N
1500367095.3,286046979.1,N
1500367115.2,286046978.0,N
1500367135.0,286046975.8,N
1500367135.9,286046975.8,N
1500367155.7,286046978.5,N
1500367175.6,286046976.7,N
1500367195.4,286046976.5,N
1500367215.3,286046976.7,N
1500367235.1,286046976.0,N
1500367236.0,286046976.0,N
1500367255.8,286046978.8,N
1500367275.7,286046976.7,N
1500367295.5,286046977.5,N
1500367315.3,286046975.7,N
1500367335.2,286046978.5,N
1500367355.0,286046975.7,N
1500367355.9,286046975.7,N
1500367375.8,286046975.9,N
1500367395.6,286046976.9,N
1500367415.4,286046976.8,N
1500367435.3,286046976.1,N
1500367455.1,286046978.8,N
1500367475.8,286046976.3,N
1500367495.7,286046976.8,N
1500367515.5,286046972.5,N
1500367535.4,286046973.7,N
1500367555.2,286046973.8,N
1500367575.0,286046972.2,N
1500367575.9,286046972.2,N
1500367595.8,286046971.6,N
1500367615.6,286046971.3,N
1500367635.4,286046971.1,N
1500367655.3,286046970.9,N
1500367675.1,286046971.4,N
1500367695.9,286046971.1,N
1500367715.7,286046974.0,N
1500367735.5,286046971.5,N
1500367755.4,286046971.5,N
1500367775.2,286046972.1,N
1500367795.0,286046970.6,N
1500367796.0,286046970.6,N
1500367815.8,286046967.7,N
1500367835.6,286046970.8,N
1500367855.5,286046970.8,N
1500367875.3,286046970.4,N
1500367895.1,286046970.8,N
1500367915.9,286046968.5,N
1500367935.7,286046968.6,N
1500367955.6,286046968.8,N
1500367975.4,286046968.8,N
1500367995.2,286046966.1,N
1500368015.1,286046967.1,N
1500368016.0,286046967.1,N
1500368035.8,286046966.7,N
1500368055.7,286046964.6,N
1500368075.5,286046967.6,N
1500368095.3,286046966.8,N
1500368115.2,286046968.8,N
1500368135.0,286046966.5,N
1500368135.9,286046966.5,N
1500368155.7,286046969.2,N
1500368175.6,286046967.9,N
1500368195.4,286046969.2,N
1500368215.3,286046968.7,N
1500368235.1,286046966.2,N
1500368236.0,286046966.2,N
1500368255.8,286046969.1,N
1500368275.7,286046966.3,N
1500368295.5,286046967.3,N
1500368315.3,286046965.6,N
1500368335.2,286046965.5,N
1500368355.0,286046965.4,N
1500368355.9,286046965.4,N
1500368375.8,286046964.0,N
1500368395.6,286046963.1,N
